TimeCDT,TemperatureF,Dew PointF,Humidity,Sea Level PressureIn,VisibilityMPH,Wind Direction,Wind SpeedMPH,Gust SpeedMPH,PrecipitationIn,Events,Conditions,WindDirDegrees,DateUTC
12:15 AM,69.8,62.6,78,29.99,10.0,Calm,Calm,-,N/A,,Clear,0,2012-10-03 05:15:00
12:35 AM,69.8,60.8,73,29.98,10.0,Calm,Calm,-,N/A,,Clear,0,2012-10-03 05:35:00
12:55 AM,68.0,60.8,78,29.98,10.0,Calm,Calm,-,N/A,,Clear,0,2012-10-03 05:55:00
1:15 AM,69.8,60.8,73,29.98,10.0,Calm,Calm,-,N/A,,Clear,0,2012-10-03 06:15:00
1:35 AM,69.8,60.8,73,29.98,10.0,Calm,Calm,-,N/A,,Clear,0,2012-10-03 06:35:00
1:55 AM,68.0,60.8,78,29.98,10.0,Calm,Calm,-,N/A,,Clear,0,2012-10-03 06:55:00
2:15 AM,66.2,60.8,83,29.97,10.0,NNE,3.5,-,N/A,,Clear,30,2012-10-03 07:15:00
2:35 AM,66.2,60.8,83,29.97,10.0,Calm,Calm,-,N/A,,Clear,0,2012-10-03 07:35:00
2:55 AM,68.0,57.2,68,29.96,10.0,NE,3.5,-,N/A,,Clear,40,2012-10-03 07:55:00
3:15 AM,68.0,55.4,64,29.96,10.0,NE,5.8,-,N/A,,Clear,40,2012-10-03 08:15:00
3:35 AM,68.0,55.4,64,29.96,10.0,NNE,3.5,-,N/A,,Clear,20,2012-10-03 08:35:00
3:55 AM,68.0,59.0,73,29.96,10.0,Calm,Calm,-,N/A,,Clear,0,2012-10-03 08:55:00
4:15 AM,68.0,59.0,73,29.96,10.0,Calm,Calm,-,N/A,,Clear,0,2012-10-03 09:15:00
4:35 AM,69.8,60.8,73,29.96,10.0,Calm,Calm,-,N/A,,Clear,0,2012-10-03 09:35:00
4:55 AM,64.4,59.0,83,29.96,10.0,Calm,Calm,-,N/A,,Clear,0,2012-10-03 09:55:00
5:15 AM,66.2,59.0,78,29.97,10.0,Calm,Calm,-,N/A,,Clear,0,2012-10-03 10:15:00
5:35 AM,64.4,59.0,83,29.97,10.0,Calm,Calm,-,N/A,,Clear,0,2012-10-03 10:35:00
5:55 AM,68.0,60.8,78,29.97,10.0,Calm,Calm,-,N/A,,Clear,0,2012-10-03 10:55:00
6:15 AM,68.0,60.8,78,29.98,10.0,Calm,Calm,-,N/A,,Clear,0,2012-10-03 11:15:00
6:35 AM,69.8,60.8,73,29.98,10.0,Calm,Calm,-,N/A,,Clear,0,2012-10-03 11:35:00
6:55 AM,68.0,60.8,78,29.99,10.0,Calm,Calm,-,N/A,,Clear,0,2012-10-03 11:55:00
7:15 AM,68.0,62.6,83,29.99,10.0,Calm,Calm,-,N/A,,Clear,0,2012-10-03 12:15:00
7:35 AM,66.2,60.8,83,29.99,10.0,Calm,Calm,-,N/A,,Clear,0,2012-10-03 12:35:00
7:55 AM,69.8,60.8,73,29.99,10.0,WSW,5.8,-,N/A,,Scattered Clouds,250,2012-10-03 12:55:00
8:15 AM,71.6,64.4,78,30.00,10.0,West,6.9,-,N/A,,Scattered Clouds,260,2012-10-03 13:15:00
8:35 AM,71.6,64.4,78,30.00,10.0,West,6.9,-,N/A,,Mostly Cloudy,280,2012-10-03 13:35:00
8:55 AM,73.4,64.4,73,30.01,10.0,WNW,5.8,-,N/A,,Scattered Clouds,290,2012-10-03 13:55:00
9:15 AM,73.4,64.4,73,30.01,10.0,WNW,3.5,-,N/A,,Scattered Clouds,290,2012-10-03 14:15:00
9:35 AM,75.2,62.6,65,30.02,10.0,WNW,3.5,-,N/A,,Scattered Clouds,290,2012-10-03 14:35:00
9:55 AM,77.0,62.6,61,30.03,10.0,Calm,Calm,-,N/A,,Scattered Clouds,0,2012-10-03 14:55:00
10:15 AM,77.0,62.6,61,30.03,10.0,Calm,Calm,-,N/A,,Clear,0,2012-10-03 15:15:00
10:35 AM,78.8,62.6,57,30.02,10.0,Calm,Calm,-,N/A,,Clear,0,2012-10-03 15:35:00
10:55 AM,80.6,62.6,54,30.02,10.0,Calm,Calm,-,N/A,,Clear,0,2012-10-03 15:55:00
11:15 AM,80.6,59.0,48,30.02,10.0,South,4.6,-,N/A,,Clear,170,2012-10-03 16:15:00
11:35 AM,80.6,60.8,51,30.03,10.0,South,5.8,-,N/A,,Clear,170,2012-10-03 16:35:00
11:55 AM,80.6,62.6,54,30.02,10.0,ESE,5.8,-,N/A,,Clear,120,2012-10-03 16:55:00
12:15 PM,80.6,62.6,54,30.02,10.0,ESE,4.6,-,N/A,,Clear,110,2012-10-03 17:15:00
12:55 PM,80.6,64.4,58,30.01,10.0,SE,5.8,-,N/A,,Clear,130,2012-10-03 17:55:00
1:15 PM,82.4,64.4,54,30.00,10.0,ESE,5.8,-,N/A,,Clear,120,2012-10-03 18:15:00
1:35 PM,82.4,64.4,54,29.99,10.0,ESE,8.1,-,N/A,,Clear,110,2012-10-03 18:35:00
1:55 PM,82.4,64.4,54,29.99,10.0,ESE,8.1,-,N/A,,Clear,110,2012-10-03 18:55:00
2:15 PM,82.4,64.4,54,29.99,10.0,ESE,10.4,-,N/A,,Clear,120,2012-10-03 19:15:00
2:35 PM,82.4,64.4,54,29.98,10.0,SE,12.7,-,N/A,,Clear,140,2012-10-03 19:35:00
2:55 PM,84.2,64.4,51,29.97,10.0,SSE,11.5,17.3,N/A,,Clear,150,2012-10-03 19:55:00
3:15 PM,84.2,62.6,48,29.97,10.0,SSE,12.7,-,N/A,,Clear,160,2012-10-03 20:15:00
3:35 PM,84.2,62.6,48,29.97,10.0,SSE,12.7,17.3,N/A,,Clear,150,2012-10-03 20:35:00
3:55 PM,84.2,64.4,51,29.96,10.0,SSE,10.4,-,N/A,,Clear,160,2012-10-03 20:55:00
4:15 PM,84.2,64.4,51,29.96,10.0,SSE,11.5,18.4,N/A,,Clear,150,2012-10-03 21:15:00
4:35 PM,84.2,66.2,55,29.96,10.0,SSE,15.0,-,N/A,,Clear,150,2012-10-03 21:35:00
4:55 PM,82.4,68.0,62,29.96,10.0,SE,15.0,20.7,N/A,,Clear,140,2012-10-03 21:55:00
5:15 PM,82.4,68.0,62,29.96,10.0,SSE,13.8,20.7,N/A,,Clear,150,2012-10-03 22:15:00
5:55 PM,82.4,69.8,66,29.96,10.0,SE,13.8,20.7,N/A,,Clear,140,2012-10-03 22:55:00
6:15 PM,80.6,69.8,70,29.96,10.0,SSE,12.7,19.6,N/A,,Clear,150,2012-10-03 23:15:00
6:35 PM,80.6,69.8,70,29.96,10.0,SE,12.7,17.3,N/A,,Clear,140,2012-10-03 23:35:00
6:55 PM,80.6,69.8,70,29.97,10.0,SE,15.0,19.6,N/A,,Clear,140,2012-10-03 23:55:00
7:15 PM,80.6,69.8,70,29.97,10.0,SE,13.8,19.6,N/A,,Clear,140,2012-10-04 00:15:00
7:35 PM,80.6,69.8,70,29.97,10.0,SSE,13.8,19.6,N/A,,Clear,150,2012-10-04 00:35:00
7:55 PM,80.6,69.8,70,29.97,10.0,SE,12.7,20.7,N/A,,Clear,140,2012-10-04 00:55:00
8:15 PM,80.6,69.8,70,29.98,10.0,SE,15.0,20.7,N/A,,Clear,140,2012-10-04 01:15:00
8:35 PM,80.6,69.8,70,29.98,10.0,SE,16.1,19.6,N/A,,Clear,140,2012-10-04 01:35:00
8:55 PM,80.6,69.8,70,29.99,10.0,SE,13.8,21.9,N/A,,Clear,140,2012-10-04 01:55:00
9:15 PM,80.6,71.6,74,30.00,10.0,SE,16.1,20.7,N/A,,Clear,140,2012-10-04 02:15:00
9:35 PM,80.6,71.6,74,30.00,10.0,SSE,16.1,21.9,N/A,,Clear,150,2012-10-04 02:35:00
9:55 PM,80.6,71.6,74,30.01,10.0,SSE,15.0,21.9,N/A,,Clear,150,2012-10-04 02:55:00
10:15 PM,80.6,71.6,74,30.01,10.0,SSE,17.3,23.0,N/A,,Scattered Clouds,150,2012-10-04 03:15:00
10:35 PM,80.6,71.6,74,30.01,10.0,SSE,15.0,23.0,N/A,,Scattered Clouds,150,2012-10-04 03:35:00
10:55 PM,80.6,71.6,74,30.01,10.0,SSE,15.0,21.9,N/A,,Scattered Clouds,150,2012-10-04 03:55:00
11:15 PM,78.8,71.6,78,30.02,10.0,SSE,15.0,23.0,N/A,,Scattered Clouds,150,2012-10-04 04:15:00
11:35 PM,80.6,71.6,74,30.02,10.0,SSE,17.3,23.0,N/A,,Scattered Clouds,150,2012-10-04 04:35:00
11:55 PM,78.8,71.6,78,30.01,10.0,SSE,17.3,23.0,N/A,,Mostly Cloudy,150,2012-10-04 04:55:00